Cozumel Airport, Mexico

12:53 PM EST on February 08, 2016 (GMT -0500)
Cozumel International

Weather History for MMCZ - May, 2013

Change the Weather History Date:

Saturday, May 25, 2013

  Actual Average Record
Temperature  
Mean Temperature 80 °F -  
Max Temperature 86 °F 88 °F 95 °F (2005)
Min Temperature 73 °F 76 °F 69 °F (2012)
Cooling Degree Days 14    
Growing Degree Days 30 (Base 50)    
Moisture  
Dew Point 72 °F    
Average Humidity 82    
Maximum Humidity 94    
Minimum Humidity 66    
Precipitation  
Precipitation 0.00 in - - ()
Sea Level Pressure  
Sea Level Pressure 30.03 in    
Wind  
Wind Speed 7 mph ()    
Max Wind Speed 17 mph    
Max Gust Speed 23 mph    
Visibility 7.5 miles    
Events      
Averages and records for this station are not official NWS values.
T = Trace of Precipitation, MM = Missing Value Source: Averaged Metar Reports

Daily Weather History Graph

Daily Weather History Graph

Search for Another Location

Airport or City:

Trip Planner

Search our weather history database for the weather conditions in past years. The results will help you decide how hot, cold, wet, or windy it might be!

Date:

Astronomy

May. 25, 2013 Rise Set
Actual Time 6:07 AM CDT 7:21 PM CDT
Civil Twilight 5:43 AM CDT 7:46 PM CDT
Nautical Twilight 5:14 AM CDT 8:14 PM CDT
Astronomical Twilight 4:45 AM CDT 8:44 PM CDT
Moon 8:10 PM CDT (5/25) 6:32 AM CDT (5/25)
Length of Visible Light 14h 02m
Length of Day
13h 14m
Full, 100% of the Moon is Illuminated
May 25
Full
May 31
Last Quarter
Jun 8
New
Jun 16
First Quarter
Jun 23
Full

Hourly Weather History & Observations

Time (CDT) Temp. Heat Index Dew Point Humidity Pressure Visibility Wind Dir Wind Speed Gust Speed Precip Events Conditions
12:00 AM 75.2 °F - 71.6 °F 89% 30.05 in 7.0 mi East 5.8 mph - N/A   Partly Cloudy
12:54 AM 75.2 °F - 71.6 °F 89% 29.98 in 7.0 mi East 3.5 mph - N/A   Partly Cloudy
1:46 AM 75.2 °F - 71.6 °F 89% 30.02 in 7.0 mi East 3.5 mph - N/A   Partly Cloudy
3:05 AM 73.4 °F - 71.6 °F 94% 30.02 in 7.0 mi East 3.5 mph - N/A   Partly Cloudy
4:08 AM 73.4 °F - 71.6 °F 94% 30.11 in 7.0 mi East 3.5 mph - N/A   Partly Cloudy
5:44 AM 73.4 °F - 71.6 °F 94% 30.01 in 7.0 mi East 4.6 mph - N/A   Partly Cloudy
6:43 AM 75.2 °F - 71.6 °F 89% 29.98 in 7.0 mi East 3.5 mph - N/A   Scattered Clouds
7:41 AM 78.8 °F - 73.4 °F 83% 30.04 in 8.0 mi East 9.2 mph - N/A   Mostly Cloudy
8:43 AM 82.4 °F 87.2 °F 71.6 °F 70% 30.05 in 8.0 mi East 11.5 mph - N/A   Scattered Clouds
9:41 AM 82.4 °F 88.2 °F 73.4 °F 74% 30.09 in 8.0 mi East 10.4 mph 21.9 mph N/A   Mostly Cloudy
10:45 AM 82.4 °F 88.2 °F 73.4 °F 74% 30.07 in 8.0 mi ENE 11.5 mph 23.0 mph N/A   Mostly Cloudy
11:52 AM 82.4 °F 88.2 °F 73.4 °F 74% 30.07 in 8.0 mi ENE 10.4 mph - N/A   Mostly Cloudy
12:46 PM 84.2 °F 90.9 °F 73.4 °F 70% 30.02 in 8.0 mi SE 11.5 mph 23.0 mph N/A   Scattered Clouds
1:42 PM 86.0 °F 93.4 °F 73.4 °F 66% 30.04 in 8.0 mi ENE 15.0 mph - N/A   Scattered Clouds
2:40 PM 86.0 °F 93.4 °F 73.4 °F 66% 30.02 in 8.0 mi East 17.3 mph - N/A   Scattered Clouds
3:40 PM 82.4 °F 87.2 °F 71.6 °F 70% 30.04 in 8.0 mi East 15.0 mph - N/A   Scattered Clouds
4:40 PM 84.2 °F 89.6 °F 71.6 °F 66% 30.00 in 8.0 mi East 13.8 mph - N/A   Scattered Clouds
5:50 PM 82.4 °F 88.2 °F 73.4 °F 74% 29.99 in 8.0 mi ENE 17.3 mph - N/A   Scattered Clouds
6:46 PM 80.6 °F 85.4 °F 73.4 °F 79% 29.95 in 8.0 mi East 13.8 mph - N/A   Scattered Clouds
7:41 PM 75.2 °F - 73.4 °F 94% 30.00 in 7.0 mi East 4.6 mph - N/A   Scattered Clouds
8:42 PM 75.2 °F - 73.4 °F 94% 30.03 in 7.0 mi East 4.6 mph - N/A   Scattered Clouds
9:46 PM 75.2 °F - 73.4 °F 94% 30.08 in 7.0 mi East 5.8 mph - N/A   Scattered Clouds
10:45 PM 75.2 °F - 71.6 °F 89% 30.07 in 7.0 mi East 5.8 mph - N/A   Partly Cloudy
11:45 PM 73.4 °F - 71.6 °F 94% 30.06 in 7.0 mi East 4.6 mph - N/A   Partly Cloudy